• Processing (Info)

  • MPEC 2022-P94 : 2020 AQ24

    The following Minor Planet Electronic Circular may be linked-to from your own Web pages, but must not otherwise be redistributed electronically.

    A form allowing access to any MPEC is at the bottom of this page.


    Read MPEC 2022-P93 Read MPEC 2022-P95


    M.P.E.C. 2022-P94                                Issued 2022 August 8, 19:15 UT
    
         The Minor Planet Electronic Circulars contain information on unusual
             minor planets and routine data on comets.  They are published
        on behalf of Division F of the International Astronomical Union by the
              Minor Planet Center, Smithsonian Astrophysical Observatory,
                              Cambridge, MA 02138, U.S.A.
    
                 Prepared using the Tamkin Foundation Computer Network
    
                                  MPC@CFA.HARVARD.EDU
                URL https://www.minorplanetcenter.net/    ISSN 1523-6714
    
                                    2020 AQ24                                
    
    
    Observations:
         K20A24Q ZC2020 01 11.28134311 15 23.07 +64 25 39.4          19.6 rWEP094I41
         K20A24Q ZC2020 01 11.52006810 59 59.46 +63 52 34.1          19.9 gWEP094I41
         K20A24Q ZC2020 01 12.28551110 08 06.17 +60 41 14.6          19.3 rWEP094I41
         K20A24Q ZC2020 01 12.28596210 08 04.20 +60 41 06.1          19.0 rWEP094I41
         K20A24Q ZC2020 01 12.28641410 08 02.09 +60 40 56.9          19.1 rWEP094I41
         K20A24Q ZC2020 01 12.34378410 03 44.42 +60 21 22.7          18.9 rWEP094I41
         K20A24Q ZC2020 01 12.34413110 03 42.69 +60 21 14.6                WEP094I41
         K20A24Q ZC2020 01 12.34769210 03 26.56 +60 20 00.1          19.2 rWEP094I41
         K20A24Q ZC2020 01 12.34803910 03 25.04 +60 19 51.8                WEP094I41
         K20A24Q ZC2020 01 13.33142208 51 18.71 +51 14 51.2          17.9 rWEP094I41
         K20A24Q ZC2020 01 13.33176708 51 17.16 +51 14 36.0                WEP094I41
         K20A24Q ZC2020 01 13.33187108 51 16.74 +51 14 30.7          18.2 rWEP094I41
         K20A24Q ZC2020 01 13.33221808 51 15.20 +51 14 14.7                WEP094I41
         K20A24Q ZC2020 01 13.33232208 51 14.64 +51 14 10.0          18.4 rWEP094I41
         K20A24Q ZC2020 01 13.33266908 51 13.16 +51 13 54.3                WEP094I41
         K20A24Q ZC2020 01 13.35009608 49 55.24 +51 00 25.2          18.5 gWEP094I41
         K20A24Q ZC2020 01 13.35044308 49 53.55 +51 00 07.9                WEP094I41
         K20A24Q ZC2020 01 14.21618607 52 49.57 +36 23 47.8          17.3 rWEP094I41
         K20A24Q ZC2020 01 14.21653207 52 48.20 +36 23 22.7                WEP094I41
         K20A24Q* C2020 01 14.30246507 47 27.20 +34 36 50.3          17.09RUEP094I41
         K20A24Q  C2020 01 14.30281307 47 25.83 +34 36 23.4          17.09RUEP094I41
         K20A24Q  C2020 01 14.30291707 47 25.63 +34 36 13.7          17.10RUEP094I41
         K20A24Q  C2020 01 14.30326407 47 24.25 +34 35 47.6          17.10RUEP094I41
         K20A24Q  C2020 01 14.30338007 47 23.80 +34 35 38.9          17.06RUEP094I41
         K20A24Q  C2020 01 14.30372707 47 22.50 +34 35 13.0          17.06RUEP094I41
         K20A24Q  C2020 01 14.30383107 47 22.13 +34 35 04.6          17.10RUEP094I41
         K20A24Q  C2020 01 14.30417807 47 20.85 +34 34 38.7          17.10RUEP094I41
         K20A24Q ZC2020 01 14.42787507 39 49.61 +31 54 00.1                WEP094I41
         K20A24Q ZC2020 01 14.42822207 39 48.35 +31 53 31.8          17.8 gWEP094I41
         K20A24Q ZC2020 01 15.18748007 01 30.13 +14 10 48.6                WEP094I41
         K20A24Q ZC2020 01 15.18782707 01 29.02 +14 10 20.1                WEP094I41
         K20A24Q ZC2020 01 16.18987506 22 27.51 -07 07 48.4          18.4 gWEP094I41
         K20A24Q ZC2020 01 16.19022206 22 26.76 -07 08 10.7                WEP094I41
         K20A24Q ZC2020 01 16.21173906 21 41.90 -07 31 20.3          17.6 rWEP094I41
         K20A24Q ZC2020 01 16.21208606 21 41.12 -07 31 42.0                WEP094I41
    
    Observer details:
    I41 Palomar Mountain--ZTF.  Observers , B. T. Bolin, K. P. Deshmukh, Z. T. F.
        Collaboration.  Measurers S. Deen, B. T. Bolin, D. A. Duev, H.-W. Lin, F.
        J. Masci.  1.2-m Oschin Schmidt + CCD, 1.2-m f/2.4 Schmidt.
    
    Orbital elements:
    2020 AQ24                                                Earth MOID = 0.0215 AU
    Epoch 2022 Aug. 9.0 TT = JDT 2459800.5                  Veres                   
    M 109.63142              (2000.0)            P               Q                  
    n   0.99658017     Peri.  288.24204     -0.61224566     +0.62509182             
    a   0.9926464      Node   293.70476     -0.36053592     -0.76569598             
    e   0.0402900      Incl.   31.92294     -0.70368253     -0.15155819             
    P   0.99           H   24.98          G   0.15           U   7                  
    Residuals in seconds of arc
    200111 I41  0.1+  0.0     200113 I41  0.5+  0.1+    200114 I41  0.2-  0.0
    200111 I41  0.0   0.1-    200113 I41  0.4-  0.2+    200114 I41  0.1-  0.4-
    200112 I41  0.3+  0.1+    200113 I41  0.3+  0.5+    200114 I41  0.1+  0.0
    200112 I41  0.5+  0.5+    200113 I41  0.2+  0.4+    200114 I41  0.3-  0.7-
    200112 I41  0.2-  0.2+    200113 I41  1.1-  0.7-    200114 I41  0.6-  1.3-
    200112 I41  0.5+  0.0     200114 I41  0.1+  0.1-    200115 I41  0.8+  0.3-
    200112 I41  0.7-  0.8-    200114 I41  0.8-  0.0     200115 I41  1.0-  0.6+
    200112 I41  0.6-  0.3+    200114 I41  0.1-  1.6+    200116 I41  0.1+  0.4-
    200112 I41  0.2-  0.6-    200114 I41  1.1-  1.0+    200116 I41  0.2-  0.2-
    200113 I41  0.0   0.0     200114 I41  1.3+  0.8-    200116 I41  0.6+  0.1-
    200113 I41  0.0   0.6+    200114 I41  0.2+  0.6-    200116 I41  0.2-  0.5+
    200113 I41  0.4+  0.1+    200114 I41  0.1-  0.5-
    
    Ephemeris:
    2020 AQ24                a,e,i = 0.99, 0.04, 32                  q = 0.9527
    Date    TT    R. A. (2000) Decl.     Delta      r    Elong.  Phase     V
    2022 07 09    01 28 21.3 +30 04 30   0.3159  0.9864    75.5    86.4    25.5
    ...
    2022 07 24    01 51 05.2 +55 06 21   0.3639  0.9968    76.6    82.6    25.7
    ...
    2022 08 01    02 13 01.3 +65 15 38   0.4032  1.0023    76.7    80.3    25.8
    ...
    2022 08 07    02 38 28.6 +71 26 15   0.4353  1.0062    76.5    78.6    25.9
    2022 08 08    02 43 52.8 +72 21 12   0.4407  1.0068    76.5    78.3    26.0
    2022 08 09    02 49 42.6 +73 14 13   0.4462  1.0075    76.4    78.1    26.0
    ...
    2022 08 15    03 36 35.9 +77 50 45   0.4787  1.0112    76.1    76.5    26.1
    ...
    2022 08 23    05 28 47.2 +81 47 22   0.5201  1.0158    75.6    74.7    26.2
    ...
    2022 09 07    09 43 43.7 +80 25 37   0.5849  1.0233    74.7    71.8    26.4
    
    M. P. C. Staff               (C) Copyright 2022 MPC           M.P.E.C. 2022-P94
    


    Read MPEC 2022-P93 Read MPEC 2022-P95


    MPEC number:

    Enter an MPEC number in one of the following forms:

    • 1997-B01 (the full form)
    • J97B01 (the packed version of the full form)
    • B01 (the abbreviated form)